Find Starlink 31904

NORAD ID: 59657 Int'l Des: 2024-084 Owner: SPXS Country: US Constellation: starlink operational
LEOCIRCULAR

現在のビュー

3D地球を読み込み中...

About Starlink 31904

Starlink 31904 (NORAD 59657) is a starlink constellation satellite (v2 mini) launched May 6, 2024 by SPXS of US. It operates in LEO, CIRCULAR orbit with a mass of 730.00 kg.

Starlink 31904について

説明を読み込み中...

次回通過

Passes for default location (London). Set your location on the main map for personalized predictions.

高度履歴

Loading altitude history...

軌道要素

1 59657U 24084D 26174.68946625 .00001649 00000-0 69454-4 0 9998
2 59657 43.0028 163.2408 0001242 271.7882 88.2827 15.27570916120583
Epoch: Jun 23, 2026 • Age: 13 hours

現在のステータス

高度 485.8 km
速度 7.63 km/s
衛星直下点 37.71°N, 137.28°W
打ち上げ日 May 6, 2024
運用期間 2.1 years
タイプ internet

技術仕様

分類 Payload
質量 730.00 kg
乾燥質量 700.00 kg
総質量 730.00 kg
長さ 0.30 m
直径 4.10 m
スパン 29.00 m
形状 Box + pan
製造者 SPXS
バスタイプ Starlink V2M
フェーズステータス In Orbit
所有者/国 SPXS/US

Most Searched